Weather in Underhaan

Mongolia     47°19′41″N   110°39′56″E
temp.,
°C
wind,
m/s
gust,
m/s
humid.,
%
clouds,
%
prec.,
mm/h
press.,
hPa
HPBL,
m
8 march, mon
mon823:00−5ssw33570 0.0 102022
02:00−6ssw33630 0.0 102023
05:00−6sw446911 0.0 101938
08:00−7sw44675 0.0 102056
11:00−2sw47700 0.0 1018207
14:00+1sw24780 0.0 1016108
17:000wnw11620 0.0 101722
20:00−3ne11560 0.0 102221
9 march, tue
tue923:00−5sse11600 0.0 102421
02:00−6se11600 0.0 102521
05:00−7sse11610 0.0 102621
08:00−6sse22620 0.0 102722
11:00−1ssw26690 0.0 1025263
14:00+1sw237640 0.0 1021104
17:00+1ssw465772 0.0 101778
20:00−2s565537 0.0 101979
10 march, wed
wed1023:00−3ssw34590 0.0 101944
02:00−4wsw22645 0.0 102021
05:00−5n126365 0.0 102122
08:00−6ne337347 0.0 102535
11:00−2ene25710 0.0 1025282
14:000ne35690 0.0 1024377
17:00−2ene33740 0.0 102430
20:00−6ese34640 0.0 102736
11 march, thu
thu1123:00−6e116995 0.0 102822
02:00−7ene227598 0.0 102821
05:00−7ene2280100 0.0 102722
08:00−8ene238093 0.0 102832
11:00−4ne227352 0.0 1026159
14:00−2ne227026 0.0 1023258
17:00−3ne22810 0.0 102322
20:00−6e12720 0.0 102621
12 march, fri
fri1223:00−7ese11680 0.0 102821
02:00−8sw11690 0.0 102921
05:00−8ssw11700 0.0 102921
08:00−7sw12700 0.0 102921
11:00−2sw23680 0.0 1028164
14:00+1sw24730 0.0 1023160
17:00+1sw23580 0.0 102124
20:00−1ssw695917 0.0 1023130